User: anonymous
Location: ROBOsky.com Wild Flower Ridge Observatory
(43.9736°N, 79.9739°W)
Time: 20:39:43
(UTC-04:00)
Language:

Cosmos 1190 Rocket - Orbit

View from above orbital plane
View from above orbital plane
View from above satellite
View from above satellite

Ground track
Ground track

The orbit data is extracted from the following two-line orbital elements,

1 11870U 80056B   14109.18904737  .00000239  00000-0  90081-4 0  6904
2 11870 074.0526 168.2989 0015785 044.2172 012.0930 14.36474252768949
Epoch (UTC): 19 April 2014 04:32:13
Eccentricity: 0.0015785
inclination: 74.0526°
perigee height: 759 km
apogee height: 781 km
right ascension of ascending node: 168.2989°
argument of perigee: 44.2172°
revolutions per day: 14.36474252
mean anomaly at epoch: 12.0930°
orbit number at epoch: 76894

The dashed part of the orbit path shows where the satellite is in the earth's shadow,  

DLR